Location: Shenandoah County Park
(38.9356°N, 78.4524°W)
Time: 10:12:23
(UTC-04:00)

Vanguard 1 Rocket - Pass Details

Date: 16 February 2023
Orbit: 652 x 4223 km, 34.3° (Epoch: 24 March)

Event Time Altitude Azimuth Distance (km) Brightness Sun altitude
Rises 16:23:48 0° 274° (W) 5,470 12.4 15.0°
Reaches altitude 10° 16:27:45 10° 262° (W) 4,950 12.8 14.4°
Maximum altitude 16:39:14 26° 213° (SSW) 4,917 12.3 12.4°
Drops below altitude 10° 16:55:56 10° 168° (SSE) 7,202 12.2 9.5°
Sets 17:03:49 0° 157° (SSE) 8,434 12.3 8.1°
